GW1859 Weather Reports


Display with metric or nautical units.
time (UTC)temp
F
wind
direction
speed
MPH
gust
MPH
rain 1hr
in
rain 24hr
in
rain mn
in
humidity
%
barometer
mb
20260905113133 76 343 0.0 1.0 0.00 0.00 0.00 71 1014.9
20260905112627 76 339 1.0 2.0 0.00 0.00 0.00 71 1015.0
20260905112124 76 316 0.0 1.0 0.00 0.00 0.00 71 1015.0
20260905111624 76 322 0.0 1.0 0.00 0.00 0.00 70 1015.0
20260905111123 77 324 0.0 1.0 0.00 0.00 0.00 70 1015.2
20260905110622 77 317 0.0 1.0 0.00 0.00 0.00 70 1014.9
20260905110117 77 269 0.0 1.0 0.00 0.00 0.00 70 1015.1
20260905105617 77 296 0.0 2.0 0.00 0.00 0.00 69 1014.9
20260905105116 77 22 0.0 1.0 0.00 0.00 0.00 69 1014.9
20260905104612 78 327 1.0 2.0 0.00 0.00 0.00 68 1015.1
20260905104107 78 309 0.0 2.0 0.00 0.00 0.00 68 1015.0
20260905103602 78 169 0.0 1.0 0.00 0.00 0.00 68 1015.0
20260905103059 78 256 0.0 1.0 0.00 0.00 0.00 68 1015.0
20260905102554 78 328 1.0 2.0 0.00 0.00 0.00 68 1014.9
20260905102050 78 353 0.0 2.0 0.00 0.00 0.00 68 1015.1
20260905101548 78 229 0.0 2.0 0.00 0.00 0.00 67 1015.3
20260905101047 78 287 0.0 3.0 0.00 0.00 0.00 68 1015.2
20260905100544 78 237 2.0 2.0 0.00 0.00 0.00 68 1015.1
20260905100043 78 230 0.0 2.0 0.00 0.00 0.00 69 1015.3
20260905095537 77 326 0.0 2.0 0.00 0.00 0.00 69 1015.1
20260905095033 77 336 0.0 2.0 0.00 0.00 0.00 69 1015.4
20260905094528 77 316 0.0 2.0 0.00 0.00 0.00 69 1015.1
20260905094027 77 333 0.0 1.0 0.00 0.00 0.00 70 1015.1
20260905093521 77 333 0.0 1.0 0.00 0.00 0.00 69 1015.5
20260905093019 77 326 0.0 2.0 0.00 0.00 0.00 69 1015.5
20260905092518 77 352 0.0 1.0 0.00 0.00 0.00 69 1015.5
20260905092014 78 333 0.0 1.0 0.00 0.00 0.00 68 1015.3
20260905091513 78 324 1.0 1.0 0.00 0.00 0.00 68 1015.4
20260905091008 78 326 0.0 1.0 0.00 0.00 0.00 68 1015.4
20260905090502 78 310 0.0 1.0 0.00 0.00 0.00 67 1015.6
20260905090002 78 347 0.0 1.0 0.00 0.00 0.00 67 1015.5
20260905085501 79 283 0.0 1.0 0.00 0.00 0.00 66 1015.4
20260905084957 79 343 0.0 1.0 0.00 0.00 0.00 66 1015.4
20260905084456 79 313 0.0 2.0 0.00 0.00 0.00 65 1015.4
20260905083951 79 286 1.0 2.0 0.00 0.00 0.00 65 1015.5
20260905083447 80 320 0.0 1.0 0.00 0.00 0.00 65 1015.4
20260905082942 80 287 1.0 3.0 0.00 0.00 0.00 64 1015.3
20260905082438 80 275 1.0 2.0 0.00 0.00 0.00 64 1015.3
20260905081933 80 269 0.0 1.0 0.00 0.00 0.00 64 1015.5
20260905081434 80 49 1.0 2.0 0.00 0.00 0.00 64 1015.5
20260905080932 80 337 0.0 1.0 0.00 0.00 0.00 64 1015.2
20260905080427 80 268 0.0 2.0 0.00 0.00 0.00 63 1015.4
20260905075926 80 322 0.0 2.0 0.00 0.00 0.00 63 1015.4
20260905075421 81 193 0.0 2.0 0.00 0.00 0.00 63 1015.4
20260905074920 81 332 0.0 2.0 0.00 0.00 0.00 62 1015.2
20260905074416 81 240 2.0 2.0 0.00 0.00 0.00 62 1015.4
20260905073911 81 327 0.0 2.0 0.00 0.00 0.00 62 1015.3
20260905073407 81 239 2.0 2.0 0.00 0.00 0.00 62 1015.2
20260905072902 81 314 0.0 3.0 0.00 0.00 0.00 62 1015.2
20260905072356 81 317 0.0 2.0 0.00 0.00 0.00 62 1015.3
20260905071853 81 1 0.0 2.0 0.00 0.00 0.00 62 1015.0
20260905071349 81 22 2.0 2.0 0.00 0.00 0.00 63 1015.1
20260905070849 81 321 0.0 2.0 0.00 0.00 0.00 63 1015.1
20260905070345 81 37 0.0 2.0 0.00 0.00 0.00 63 1014.9
20260905065844 81 317 0.0 2.0 0.00 0.00 0.00 63 1015.3
20260905065343 81 337 1.0 2.0 0.00 0.00 0.00 63 1014.9
20260905064838 81 28 0.0 2.0 0.00 0.00 0.00 63 1015.2
20260905064334 81 328 1.0 2.0 0.00 0.00 0.00 64 1014.9
20260905063832 81 48 0.0 2.0 0.00 0.00 0.00 64 1014.9
20260905063328 81 41 2.0 2.0 0.00 0.00 0.00 64 1014.9
20260905062825 81 12 0.0 2.0 0.00 0.00 0.00 64 1014.7
20260905062325 81 35 0.0 2.0 0.00 0.00 0.00 64 1014.8
20260905061820 81 10 0.0 2.0 0.00 0.00 0.00 63 1014.6
20260905061319 81 343 0.0 2.0 0.00 0.00 0.00 64 1014.7
20260905060814 81 35 2.0 2.0 0.00 0.00 0.00 63 1014.7
20260905060311 81 15 1.0 2.0 0.00 0.00 0.00 63 1014.7
20260905055809 81 15 0.0 1.0 0.00 0.00 0.00 63 1014.8
20260905055306 81 19 1.0 1.0 0.00 0.00 0.00 63 1014.9
20260905054805 81 359 1.0 1.0 0.00 0.00 0.00 63 1014.9
20260905054302 81 35 1.0 2.0 0.00 0.00 0.00 63 1014.7
20260905053800 81 35 0.0 2.0 0.00 0.00 0.00 63 1014.7
20260905053256 82 5 0.0 1.0 0.00 0.00 0.00 63 1014.8
20260905052755 82 33 0.0 2.0 0.00 0.00 0.00 63 1014.7
20260905052250 82 21 0.0 2.0 0.00 0.00 0.00 62 1014.7
20260905051750 82 15 0.0 1.0 0.00 0.00 0.00 62 1014.6
20260905051247 82 49 0.0 1.0 0.00 0.00 0.00 62 1014.8
20260905050743 82 11 0.0 1.0 0.00 0.00 0.00 62 1014.9
20260905050239 82 44 0.0 1.0 0.00 0.00 0.00 62 1014.9
20260905045739 82 50 0.0 1.0 0.00 0.00 0.00 62 1014.9
20260905045234 82 48 0.0 1.0 0.00 0.00 0.00 62 1015.0
20260905044729 82 337 1.0 1.0 0.00 0.00 0.00 62 1014.9
20260905044225 82 346 0.0 1.0 0.00 0.00 0.00 62 1015.0
20260905043723 82 5 0.0 1.0 0.00 0.00 0.00 62 1015.3
20260905043218 82 15 0.0 1.0 0.00 0.00 0.00 62 1015.2
20260905042718 82 22 0.0 1.0 0.00 0.00 0.00 61 1015.5
20260905042217 82 23 0.0 1.0 0.00 0.00 0.00 61 1015.2
20260905041713 82 338 0.0 1.0 0.00 0.00 0.00 61 1015.1
20260905041209 83 333 0.0 1.0 0.00 0.00 0.00 61 1015.2
20260905040703 83 7 0.0 1.0 0.00 0.00 0.00 60 1015.1
20260905040203 83 25 0.0 0.0 0.00 0.00 0.00 60 1014.9
20260905035703 83 352 0.0 1.0 0.00 0.00 0.00 59 1015.0
20260905035159 83 15 0.0 1.0 0.00 0.00 0.00 59 1015.1
20260905034655 83 25 0.0 0.0 0.00 0.00 0.00 59 1015.0
20260905034155 83 339 0.0 1.0 0.00 0.00 0.00 59 1015.0
20260905033654 84 333 0.0 1.0 0.00 0.00 0.00 59 1015.0
20260905033149 84 22 0.0 0.0 0.00 0.00 0.00 58 1015.0
20260905032650 84 25 0.0 1.0 0.00 0.00 0.00 58 1015.0
20260905032150 84 333 0.0 0.0 0.00 0.00 0.00 58 1015.3
20260905031646 84 333 0.0 0.0 0.00 0.00 0.00 57 1015.1
20260905031141 85 309 0.0 0.0 0.00 0.00 0.00 57 1015.1
20260905030636 85 326 0.0 2.0 0.00 0.00 0.00 57 1015.0
20260905030132 85 345 0.0 1.0 0.00 0.00 0.00 57 1015.1
20260905025631 85 343 0.0 1.0 0.00 0.00 0.00 57 1014.9
20260905025128 85 9 0.0 0.0 0.00 0.00 0.00 56 1014.9
20260905024623 85 0 0.0 1.0 0.00 0.00 0.00 56 1015.0
20260905024118 85 343 0.0 1.0 0.00 0.00 0.00 56 1014.8
20260905023614 85 18 1.0 1.0 0.00 0.00 0.00 56 1014.7
20260905023114 85 22 0.0 1.0 0.00 0.00 0.00 56 1014.3
20260905022613 85 25 0.0 0.0 0.00 0.00 0.00 56 1014.5
20260905022108 85 315 0.0 1.0 0.00 0.00 0.00 56 1014.2
20260905021608 85 304 0.0 1.0 0.00 0.00 0.00 56 1013.9
20260905021103 85 297 0.0 1.0 0.00 0.00 0.00 55 1013.8
20260905020603 85 306 0.0 1.0 0.00 0.00 0.00 55 1014.0
20260905020058 86 333 0.0 1.0 0.00 0.00 0.00 54 1013.6
20260905015556 86 333 0.0 0.0 0.00 0.00 0.00 54 1013.6
20260905015051 87 343 0.0 0.0 0.00 0.00 0.00 53 1013.7
20260905014545 87 306 0.0 1.0 0.00 0.00 0.00 52 1013.7
20260905014041 88 336 0.0 1.0 0.00 0.00 0.00 51 1013.6
20260905013537 88 354 0.0 1.0 0.00 0.00 0.00 50 1013.7
20260905013033 89 326 0.0 1.0 0.00 0.00 0.00 50 1013.4
20260905012527 89 333 0.0 1.0 0.00 0.00 0.00 49 1013.4
20260905012024 89 354 1.0 1.0 0.00 0.00 0.00 48 1013.5
20260905011520 90 349 0.0 2.0 0.00 0.00 0.00 47 1013.5
20260905011015 90 325 0.0 1.0 0.00 0.00 0.00 47 1013.5
20260905010515 91 352 0.0 1.0 0.00 0.00 0.00 46 1013.3
20260905010012 91 315 0.0 1.0 0.00 0.00 0.00 46 1013.3
20260905005507 92 316 0.0 1.0 0.00 0.00 0.00 45 1013.2
20260905005002 92 329 0.0 1.0 0.00 0.00 0.00 44 1013.2
20260905004457 93 321 0.0 2.0 0.00 0.00 0.00 44 1013.1
20260905003952 93 337 1.0 2.0 0.00 0.00 0.00 43 1013.2
20260905003448 94 336 0.0 2.0 0.00 0.00 0.00 42 1013.2
20260905002943 94 343 0.0 1.0 0.00 0.00 0.00 41 1013.1
20260905002438 95 342 2.0 2.0 0.00 0.00 0.00 41 1013.2
20260905001937 96 54 1.0 2.0 0.00 0.00 0.00 40 1013.1
20260905001432 96 75 1.0 3.0 0.00 0.00 0.00 40 1013.5
20260905000927 97 0 0.0 2.0 0.00 0.00 0.00 39 1013.2
20260905000424 98 40 2.0 2.0 0.00 0.00 0.00 38 1013.2
20260904235918 98 69 0.0 2.0 0.00 0.00 0.00 37 1013.2
20260904235414 99 50 1.0 2.0 0.00 0.00 0.00 37 1013.2
20260904234914 100 70 1.0 3.0 0.00 0.00 0.00 37 1013.1
20260904234414 100 38 0.0 2.0 0.00 0.00 0.00 37 1013.2
20260904233909 100 229 1.0 2.0 0.00 0.00 0.00 36 1013.3
20260904233405 100 182 0.0 2.0 0.00 0.00 0.00 35 1013.2
20260904232901 101 80 0.0 2.0 0.00 0.00 0.00 35 1013.2
20260904232358 101 4 2.0 2.0 0.00 0.00 0.00 35 1013.1
20260904231853 101 89 0.0 3.0 0.00 0.00 0.00 35 1013.1
20260904231348 102 356 1.0 3.0 0.00 0.00 0.00 35 1013.1
20260904230843 101 16 1.0 3.0 0.00 0.00 0.00 35 1013.1
20260904230342 102 36 1.0 2.0 0.00 0.00 0.00 34 1013.1
20260904225837 103 13 0.0 3.0 0.00 0.00 0.00 34 1013.2
20260904225336 102 232 0.0 2.0 0.00 0.00 0.00 35 1013.0
20260904224835 101 38 1.0 2.0 0.00 0.00 0.00 36 1013.0
20260904224331 101 312 2.0 4.0 0.00 0.00 0.00 35 1013.2
20260904223830 101 1 3.0 3.0 0.00 0.00 0.00 35 1013.1
20260904223325 102 10 2.0 3.0 0.00 0.00 0.00 35 1013.0
20260904222821 103 231 2.0 3.0 0.00 0.00 0.00 34 1012.9
20260904222316 102 302 0.0 3.0 0.00 0.00 0.00 35 1013.0
20260904221816 101 44 1.0 4.0 0.00 0.00 0.00 36 1013.1
20260904221316 102 53 2.0 4.0 0.00 0.00 0.00 34 1013.0
20260904220811 102 295 1.0 2.0 0.00 0.00 0.00 35 1013.0
20260904220310 102 31 2.0 3.0 0.00 0.00 0.00 36 1013.1
20260904215806 103 200 2.0 4.0 0.00 0.00 0.00 35 1013.0
20260904215301 103 29 0.0 4.0 0.00 0.00 0.00 33 1013.2
20260904214757 103 88 2.0 4.0 0.00 0.00 0.00 34 1013.1
20260904214252 103 231 2.0 4.0 0.00 0.00 0.00 34 1013.2
20260904213750 103 318 2.0 4.0 0.00 0.00 0.00 34 1013.1
20260904213246 103 54 0.0 5.0 0.00 0.00 0.00 34 1013.0
20260904212742 103 300 0.0 3.0 0.00 0.00 0.00 35 1013.3
20260904212241 102 131 0.0 2.0 0.00 0.00 0.00 35 1013.6
20260904211737 103 64 2.0 5.0 0.00 0.00 0.00 34 1013.5
20260904211231 103 76 2.0 4.0 0.00 0.00 0.00 34 1013.5
20260904210726 102 28 3.0 7.0 0.00 0.00 0.00 35 1013.5
20260904210221 103 19 0.0 14.0 0.00 0.00 0.00 34 1013.5
20260904205717 103 345 1.0 2.0 0.00 0.00 0.00 35 1013.7
20260904205213 102 138 1.0 4.0 0.00 0.00 0.00 35 1013.6
20260904204710 102 128 1.0 3.0 0.00 0.00 0.00 35 1013.6
20260904204206 101 22 2.0 4.0 0.00 0.00 0.00 36 1013.7
20260904203701 101 229 5.0 6.0 0.00 0.00 0.00 37 1013.9
20260904203158 101 80 2.0 5.0 0.00 0.00 0.00 36 1013.7
20260904202654 103 228 5.0 5.0 0.00 0.00 0.00 35 1013.7
20260904202150 102 269 0.0 3.0 0.00 0.00 0.00 36 1014.0
20260904201650 101 154 1.0 3.0 0.00 0.00 0.00 36 1013.9
20260904201144 101 25 0.0 3.0 0.00 0.00 0.00 37 1013.9
20260904200644 102 164 4.0 4.0 0.00 0.00 0.00 36 1013.8
20260904200139 102 359 1.0 3.0 0.00 0.00 0.00 35 1013.8
20260904195638 101 358 2.0 5.0 0.00 0.00 0.00 36 1013.8
20260904195132 100 15 0.0 3.0 0.00 0.00 0.00 37 1013.9
20260904194631 100 110 0.0 5.0 0.00 0.00 0.00 37 1013.8
20260904194127 100 306 0.0 4.0 0.00 0.00 0.00 38 1014.3
20260904193627 100 257 3.0 4.0 0.00 0.00 0.00 37 1014.1
20260904193123 100 300 0.0 2.0 0.00 0.00 0.00 37 1014.1
20260904192623 100 54 2.0 6.0 0.00 0.00 0.00 38 1014.1
20260904192119 100 120 0.0 7.0 0.00 0.00 0.00 38 1014.1
20260904191615 101 195 1.0 2.0 0.00 0.00 0.00 38 1014.0
20260904191112 100 17 0.0 3.0 0.00 0.00 0.00 39 1014.3
20260904190607 100 265 3.0 9.0 0.00 0.00 0.00 38 1014.2
20260904190103 100 139 2.0 3.0 0.00 0.00 0.00 38 1014.3
20260904185600 99 274 1.0 5.0 0.00 0.00 0.00 40 1014.3
20260904185054 99 19 0.0 5.0 0.00 0.00 0.00 40 1014.6
20260904184548 98 11 1.0 5.0 0.00 0.00 0.00 41 1014.5
20260904184043 98 118 2.0 4.0 0.00 0.00 0.00 41 1014.5
20260904183543 98 267 2.0 7.0 0.00 0.00 0.00 41 1014.7
20260904183039 98 54 3.0 7.0 0.00 0.00 0.00 41 1014.3
20260904182535 98 48 1.0 4.0 0.00 0.00 0.00 42 1014.8
20260904182034 97 48 2.0 4.0 0.00 0.00 0.00 43 1014.7
20260904181530 96 107 2.0 3.0 0.00 0.00 0.00 43 1014.6
20260904181031 96 217 4.0 6.0 0.00 0.00 0.00 43 1014.9
20260904180531 96 315 0.0 6.0 0.00 0.00 0.00 44 1014.9
20260904180026 96 252 2.0 8.0 0.00 0.00 0.00 44 1015.2
20260904175520 96 184 2.0 6.0 0.00 0.00 0.00 45 1014.9
20260904175019 96 278 1.0 5.0 0.00 0.00 0.00 44 1015.2
20260904174514 96 329 2.0 7.0 0.00 0.00 0.00 45 1015.0
20260904174011 96 160 0.0 6.0 0.00 0.00 0.00 45 1015.2
20260904173511 95 6 0.0 4.0 0.00 0.00 0.00 46 1015.0
20260904173006 95 298 0.0 12.0 0.00 0.00 0.00 47 1015.5
20260904172502 93 204 0.0 6.0 0.00 0.00 0.00 49 1015.3
20260904172000 94 228 10.0 11.0 0.00 0.00 0.00 47 1015.4
20260904171456 94 38 2.0 6.0 0.00 0.00 0.00 47 1015.4
20260904170952 93 50 0.0 7.0 0.00 0.00 0.00 49 1015.7
20260904170447 94 176 2.0 5.0 0.00 0.00 0.00 48 1015.3
20260904165943 94 97 2.0 5.0 0.00 0.00 0.00 48 1015.7
20260904165441 93 334 3.0 4.0 0.00 0.00 0.00 49 1015.5
20260904164941 93 171 2.0 4.0 0.00 0.00 0.00 49 1015.4
20260904164436 92 298 1.0 6.0 0.00 0.00 0.00 50 1015.7
20260904163933 92 0 2.0 6.0 0.00 0.00 0.00 51 1015.4
20260904163432 92 208 1.0 3.0 0.00 0.00 0.00 50 1015.6
20260904162932 92 45 0.0 4.0 0.00 0.00 0.00 51 1015.8
20260904162427 91 137 1.0 4.0 0.00 0.00 0.00 51 1015.4
20260904161922 91 289 1.0 4.0 0.00 0.00 0.00 52 1015.6
20260904161417 91 255 2.0 5.0 0.00 0.00 0.00 52 1015.8
20260904160914 91 182 2.0 6.0 0.00 0.00 0.00 52 1015.6
20260904160408 91 281 3.0 5.0 0.00 0.00 0.00 53 1015.7
20260904155904 89 8 1.0 3.0 0.00 0.00 0.00 55 1015.8
20260904155403 89 70 2.0 3.0 0.00 0.00 0.00 56 1015.4
20260904154903 88 268 1.0 3.0 0.00 0.00 0.00 56 1015.6
20260904154357 87 247 4.0 5.0 0.00 0.00 0.00 57 1015.9
20260904153852 87 247 3.0 6.0 0.00 0.00 0.00 57 1015.4
20260904153348 88 148 3.0 4.0 0.00 0.00 0.00 56 1015.7
20260904152844 87 102 3.0 3.0 0.00 0.00 0.00 57 1015.7
20260904152344 87 112 1.0 4.0 0.00 0.00 0.00 58 1015.8
20260904151838 86 272 2.0 5.0 0.00 0.00 0.00 59 1015.9
20260904151338 86 193 2.0 7.0 0.00 0.00 0.00 58 1015.8
20260904150834 85 336 2.0 3.0 0.00 0.00 0.00 60 1015.8
20260904150329 85 195 4.0 7.0 0.00 0.00 0.00 61 1015.8
20260904145826 84 218 3.0 8.0 0.00 0.00 0.00 62 1015.8
20260904145323 84 332 1.0 4.0 0.00 0.00 0.00 62 1015.8
20260904144819 84 181 3.0 5.0 0.00 0.00 0.00 62 1015.6
20260904144314 83 232 3.0 5.0 0.00 0.00 0.00 63 1015.8
20260904143809 83 274 2.0 5.0 0.00 0.00 0.00 63 1015.9
20260904143306 83 284 1.0 6.0 0.00 0.00 0.00 64 1015.9
20260904142802 82 243 2.0 5.0 0.00 0.00 0.00 65 1015.7
20260904142257 81 343 0.0 4.0 0.00 0.00 0.00 69 1016.0
20260904141758 80 97 1.0 3.0 0.00 0.00 0.00 70 1015.8
20260904141253 80 241 3.0 6.0 0.00 0.00 0.00 70 1015.9
20260904140749 80 220 2.0 5.0 0.00 0.00 0.00 71 1015.9
20260904140244 80 306 0.0 4.0 0.00 0.00 0.00 72 1015.8
20260904135743 79 244 0.0 4.0 0.00 0.00 0.00 74 1016.0
20260904135238 78 276 3.0 4.0 0.00 0.00 0.00 74 1015.9
20260904134734 78 0 0.0 3.0 0.00 0.00 0.00 75 1015.8
20260904134234 78 278 0.0 4.0 0.00 0.00 0.00 76 1015.7
20260904133728 78 351 0.0 2.0 0.00 0.00 0.00 77 1015.9
20260904133225 77 345 0.0 2.0 0.00 0.00 0.00 78 1015.7
20260904132724 76 52 2.0 2.0 0.00 0.00 0.00 78 1015.5
20260904132220 76 62 2.0 2.0 0.00 0.00 0.00 79 1015.7
20260904131719 76 297 0.0 2.0 0.00 0.00 0.00 80 1015.6
20260904131215 75 57 1.0 2.0 0.00 0.00 0.00 81 1015.4
20260904130715 75 30 0.0 3.0 0.00 0.00 0.00 82 1015.4
20260904130214 75 14 1.0 3.0 0.00 0.00 0.00 82 1015.5
20260904125710 74 62 2.0 2.0 0.00 0.00 0.00 83 1015.4
20260904125206 74 334 1.0 1.0 0.00 0.00 0.00 83 1015.4
20260904124700 74 147 0.0 2.0 0.00 0.00 0.00 83 1015.4
20260904124156 74 343 1.0 2.0 0.00 0.00 0.00 84 1015.6
20260904123656 73 177 1.0 2.0 0.00 0.00 0.00 84 1015.4
20260904123153 73 333 0.0 2.0 0.00 0.00 0.00 84 1015.4
20260904122652 73 326 0.0 2.0 0.00 0.00 0.00 85 1015.2
20260904122147 73 301 0.0 3.0 0.00 0.00 0.00 85 1015.1
20260904121642 73 71 0.0 2.0 0.00 0.00 0.00 85 1015.0
20260904121138 73 339 0.0 2.0 0.00 0.00 0.00 85 1014.9
20260904120634 73 16 0.0 2.0 0.00 0.00 0.00 84 1014.9
20260904120130 73 338 0.0 2.0 0.00 0.00 0.00 84 1014.9
20260904115630 73 345 2.0 2.0 0.00 0.00 0.00 84 1014.9
20260904115126 73 50 0.0 2.0 0.00 0.00 0.00 84 1014.9
20260904114626 73 25 0.0 2.0 0.00 0.00 0.00 83 1014.8
20260904114120 73 344 0.0 1.0 0.00 0.00 0.00 84 1014.8
20260904113620 73 25 0.0 1.0 0.00 0.00 0.00 84 1014.7